Location: ???
(60.6398°N, 46.9067°E)
Time: 18:26:44
(UTC+00:00)

Cosmos 1633 Rocket - Pass Details

Date: 08 December 2019
Orbit: 607 x 624 km, 82.5° (Epoch: 17 January)

Event Time Altitude Azimuth Distance (km) Brightness Sun altitude
Rises 12:33:07 0° 343° (NNW) 2,925 6.3 -5.3°
Reaches altitude 10° 12:35:26 10° 337° (NNW) 2,014 5.5 -5.5°
Maximum altitude 12:39:40 43° 266° (W) 881 4.4 -5.9°
Drops below altitude 10° 12:43:51 10° 195° (SSW) 1,997 6.5 -6.3°
Sets 12:46:08 0° 189° (S) 2,897 7.3 -6.5°
